| time (UTC) | temp F | wind direction | speed MPH | gust MPH | rain 1hr in | rain 24hr in | rain mn in | humidity % | barometer mb |
| 20260503004813 | 43 | 0 | 0.0 | 0.0 | 0.00 | 0.00 | 0.00 | 67 | 1015.3 |
| 20260503003614 | 43 | 0 | 0.0 | 0.0 | 0.00 | 0.00 | 0.00 | 64 | 1015.2 |
| 20260503002413 | 43 | 0 | 0.0 | 0.0 | 0.00 | 0.00 | 0.00 | 62 | 1015.1 |
| 20260503001214 | 44 | 0 | 0.0 | 0.0 | 0.00 | 0.00 | 0.00 | 60 | 1015.2 |
| 20260503000014 | 44 | 0 | 0.0 | 0.0 | 0.00 | 0.00 | 0.00 | 58 | 1015.2 |
| 20260502234813 | 44 | 0 | 0.0 | 0.0 | 0.00 | 0.00 | 0.00 | 58 | 1015.0 |
| 20260502233613 | 44 | 0 | 0.0 | 0.0 | 0.00 | 0.00 | 0.00 | 57 | 1015.1 |
| 20260502232414 | 44 | 0 | 0.0 | 0.0 | 0.00 | 0.00 | 0.00 | 59 | 1015.2 |
| 20260502231213 | 44 | 0 | 0.0 | 1.0 | 0.00 | 0.00 | 0.00 | 56 | 1015.1 |
| 20260502230013 | 45 | 0 | 0.0 | 2.0 | 0.00 | 0.00 | 0.00 | 57 | 1015.1 |
| 20260502222628 | 44 | 0 | 0.0 | 1.0 | 0.00 | 0.00 | 0.00 | 58 | 1015.1 |
| 20260502221429 | 44 | 0 | 0.0 | 2.0 | 0.00 | 0.00 | 0.00 | 59 | 1015.2 |
| 20260502215829 | 44 | 0 | 0.0 | 3.0 | 0.00 | 0.00 | 0.00 | 59 | 1015.2 |
| 20260502214630 | 44 | 321 | 1.0 | 4.0 | 0.00 | 0.00 | 0.00 | 58 | 1015.2 |
| 20260502213429 | 45 | 0 | 0.0 | 2.0 | 0.00 | 0.00 | 0.00 | 60 | 1015.1 |
| 20260502212229 | 45 | 0 | 0.0 | 3.0 | 0.00 | 0.00 | 0.00 | 59 | 1015.1 |
| 20260502205728 | 45 | 0 | 0.0 | 3.0 | 0.00 | 0.00 | 0.00 | 61 | 1015.0 |
| 20260502204528 | 45 | 0 | 0.0 | 3.0 | 0.00 | 0.00 | 0.00 | 59 | 1015.1 |
| 20260502203328 | 44 | 0 | 0.0 | 2.0 | 0.00 | 0.00 | 0.00 | 62 | 1015.2 |
| 20260502202128 | 44 | 0 | 0.0 | 2.0 | 0.00 | 0.00 | 0.00 | 63 | 1015.2 |
| 20260502195828 | 44 | 0 | 0.0 | 4.0 | 0.00 | 0.00 | 0.00 | 63 | 1015.5 |
| 20260502194629 | 44 | 276 | 1.0 | 7.0 | 0.00 | 0.00 | 0.00 | 61 | 1015.5 |
| 20260502192428 | 44 | 0 | 0.0 | 3.0 | 0.00 | 0.00 | 0.00 | 61 | 1015.6 |
| 20260502191228 | 44 | 0 | 0.0 | 2.0 | 0.00 | 0.00 | 0.00 | 62 | 1015.8 |
| 20260502190028 | 44 | 312 | 1.0 | 3.0 | 0.00 | 0.00 | 0.00 | 61 | 1015.8 |
| 20260502184827 | 44 | 0 | 0.0 | 4.0 | 0.00 | 0.00 | 0.00 | 61 | 1015.8 |
| 20260502183628 | 44 | 0 | 0.0 | 3.0 | 0.00 | 0.00 | 0.00 | 61 | 1015.7 |
| 20260502182428 | 44 | 307 | 1.0 | 5.0 | 0.00 | 0.00 | 0.00 | 59 | 1015.7 |
| 20260502181228 | 45 | 312 | 1.0 | 5.0 | 0.00 | 0.00 | 0.00 | 59 | 1015.7 |
| 20260502164258 | 46 | 321 | 1.0 | 3.0 | 0.00 | 0.00 | 0.00 | 54 | 1015.6 |
| 20260502163058 | 45 | 0 | 0.0 | 3.0 | 0.00 | 0.00 | 0.00 | 58 | 1015.6 |
| 20260502161859 | 45 | 288 | 1.0 | 5.0 | 0.00 | 0.00 | 0.00 | 56 | 1015.6 |
| 20260502160659 | 45 | 265 | 1.0 | 4.0 | 0.00 | 0.00 | 0.00 | 54 | 1015.5 |
| 20260502151859 | 45 | 265 | 3.0 | 7.0 | 0.00 | 0.00 | 0.00 | 57 | 1015.6 |
| 20260502130738 | 40 | 0 | 0.0 | 5.0 | 0.00 | 0.01 | 0.00 | 72 | 1016.2 |
| 20260502123138 | 38 | 0 | 0.0 | 2.0 | 0.00 | 0.02 | 0.00 | 77 | 1016.3 |
| 20260502121938 | 38 | 0 | 0.0 | 2.0 | 0.00 | 0.02 | 0.00 | 78 | 1016.3 |
| 20260502120738 | 38 | 0 | 0.0 | 3.0 | 0.00 | 0.02 | 0.00 | 79 | 1016.3 |
| 20260502115538 | 37 | 0 | 0.0 | 2.0 | 0.00 | 0.02 | 0.00 | 80 | 1016.3 |
| 20260502114337 | 37 | 0 | 0.0 | 0.0 | 0.00 | 0.02 | 0.00 | 81 | 1016.2 |
| 20260502113138 | 37 | 0 | 0.0 | 0.0 | 0.00 | 0.02 | 0.00 | 80 | 1016.2 |
| 20260502111938 | 37 | 0 | 0.0 | 0.0 | 0.00 | 0.02 | 0.00 | 80 | 1016.2 |
| 20260502110738 | 37 | 0 | 0.0 | 0.0 | 0.00 | 0.02 | 0.00 | 80 | 1016.0 |
| 20260502105538 | 36 | 0 | 0.0 | 0.0 | 0.00 | 0.02 | 0.00 | 81 | 1015.9 |
| 20260502103216 | 36 | 0 | 0.0 | 1.0 | 0.00 | 0.02 | 0.00 | 80 | 1015.8 |
| 20260502102016 | 36 | 0 | 0.0 | 2.0 | 0.00 | 0.02 | 0.00 | 80 | 1015.7 |
| 20260502100816 | 36 | 0 | 0.0 | 2.0 | 0.00 | 0.02 | 0.00 | 80 | 1015.6 |
| 20260502090817 | 36 | 0 | 0.0 | 0.0 | 0.00 | 0.02 | 0.00 | 80 | 1015.3 |
| 20260502071355 | 36 | 0 | 0.0 | 2.0 | 0.00 | 0.02 | 0.00 | 75 | 1014.8 |
| 20260502070155 | 36 | 0 | 0.0 | 1.0 | 0.00 | 0.02 | 0.00 | 75 | 1015.0 |
| 20260502064955 | 36 | 0 | 0.0 | 2.0 | 0.00 | 0.02 | 0.00 | 74 | 1015.0 |
| 20260502063755 | 36 | 0 | 0.0 | 1.0 | 0.00 | 0.02 | 0.00 | 74 | 1015.3 |
| 20260502062053 | 36 | 0 | 0.0 | 1.0 | 0.00 | 0.02 | 0.00 | 74 | 1015.3 |
| 20260502060853 | 37 | 0 | 0.0 | 0.0 | 0.00 | 0.02 | 0.00 | 73 | 1015.3 |
| 20260502055653 | 36 | 0 | 0.0 | 0.0 | 0.00 | 0.02 | 0.00 | 73 | 1015.3 |
| 20260502053552 | 36 | 0 | 0.0 | 0.0 | 0.00 | 0.02 | 0.00 | 74 | 1015.5 |
| 20260502052033 | 36 | 0 | 0.0 | 0.0 | 0.00 | 0.02 | 0.00 | 75 | 1015.6 |
| 20260502050833 | 36 | 0 | 0.0 | 0.0 | 0.00 | 0.02 | 0.00 | 76 | 1015.7 |
| 20260502045633 | 36 | 0 | 0.0 | 0.0 | 0.00 | 0.02 | 0.00 | 75 | 1015.7 |
| 20260502044434 | 36 | 0 | 0.0 | 0.0 | 0.00 | 0.02 | 0.00 | 75 | 1015.6 |
| 20260502043233 | 36 | 0 | 0.0 | 0.0 | 0.00 | 0.02 | 0.00 | 75 | 1015.4 |
| 20260502042033 | 36 | 0 | 0.0 | 0.0 | 0.00 | 0.02 | 0.00 | 72 | 1015.3 |
| 20260502035245 | 37 | 0 | 0.0 | 0.0 | 0.00 | 0.02 | 0.00 | 74 | 1015.2 |
| 20260502034045 | 37 | 0 | 0.0 | 0.0 | 0.00 | 0.02 | 0.02 | 73 | 1015.2 |
| 20260502032845 | 38 | 0 | 0.0 | 0.0 | 0.00 | 0.02 | 0.02 | 72 | 1015.1 |
| 20260502031646 | 38 | 0 | 0.0 | 0.0 | 0.00 | 0.02 | 0.02 | 70 | 1015.2 |
| 20260502030446 | 38 | 0 | 0.0 | 0.0 | 0.00 | 0.02 | 0.02 | 69 | 1015.1 |
| 20260502025245 | 39 | 0 | 0.0 | 0.0 | 0.00 | 0.02 | 0.02 | 68 | 1015.0 |
| 20260502024046 | 39 | 0 | 0.0 | 0.0 | 0.00 | 0.02 | 0.02 | 67 | 1015.0 |
| 20260502022846 | 40 | 0 | 0.0 | 0.0 | 0.00 | 0.02 | 0.02 | 66 | 1014.8 |
| 20260502021646 | 40 | 0 | 0.0 | 0.0 | 0.00 | 0.02 | 0.02 | 64 | 1014.8 |
| 20260502020446 | 41 | 0 | 0.0 | 1.0 | 0.00 | 0.02 | 0.02 | 63 | 1014.7 |
| 20260502015245 | 41 | 0 | 0.0 | 1.0 | 0.00 | 0.02 | 0.02 | 62 | 1014.5 |
| 20260502014045 | 42 | 0 | 0.0 | 0.0 | 0.00 | 0.02 | 0.02 | 61 | 1014.4 |
| 20260502012845 | 42 | 0 | 0.0 | 1.0 | 0.00 | 0.02 | 0.02 | 59 | 1014.3 |
| 20260502011645 | 43 | 0 | 0.0 | 1.0 | 0.00 | 0.02 | 0.02 | 59 | 1014.3 |
| 20260502010446 | 43 | 0 | 0.0 | 2.0 | 0.00 | 0.02 | 0.02 | 59 | 1014.1 |
| 20260502005246 | 43 | 0 | 0.0 | 2.0 | 0.00 | 0.02 | 0.02 | 61 | 1013.9 |